DW4657 Weather Reports


Display with metric or nautical units.
time (UTC)temp
F
wind
direction
speed
MPH
gust
MPH
rain 1hr
in
rain 24hr
in
rain mn
in
humidity
%
barometer
mb
20260904211544 82 0 0.0 3.0 0.00 0.00 0.00 58 1007.6
20260904211021 81 0 0.0 3.0 0.00 0.00 0.00 57 1007.5
20260904210525 81 0 0.0 0.0 0.00 0.00 0.00 60 1007.6
20260904210045 81 0 0.0 0.0 0.00 0.00 0.00 63 1007.6
20260904205525 81 0 0.0 0.0 0.00 0.00 0.00 59 1007.6
20260904205026 81 0 0.0 0.0 0.00 0.00 0.00 60 1007.6
20260904204544 81 0 0.0 0.0 0.00 0.00 0.00 62 1007.6
20260904204025 81 0 0.0 0.0 0.00 0.00 0.00 59 1007.6
20260904203524 81 0 0.0 0.0 0.00 0.00 0.00 59 1007.8
20260904203043 81 0 0.0 1.0 0.00 0.00 0.00 60 1007.7
20260904202528 81 0 0.0 4.0 0.00 0.00 0.00 60 1007.7
20260904202024 81 0 1.0 4.0 0.00 0.00 0.00 59 1007.7
20260904201546 82 0 0.0 2.0 0.00 0.00 0.00 59 1007.7
20260904201115 83 18 0.0 2.0 0.00 0.00 0.00 58 1007.7
20260904200524 83 38 0.0 3.0 0.00 0.00 0.00 57 1007.7
20260904200054 84 39 0.0 3.0 0.00 0.00 0.00 56 1007.7
20260904195528 85 0 0.0 2.0 0.00 0.00 0.00 55 1007.6
20260904195024 85 198 0.0 3.0 0.00 0.00 0.00 55 1007.7
20260904194543 85 0 1.0 3.0 0.00 0.00 0.00 56 1007.6
20260904194018 85 298 0.0 6.0 0.00 0.00 0.00 57 1007.7
20260904193520 85 262 2.0 6.0 0.00 0.00 0.00 55 1007.6
20260904193043 85 219 1.0 3.0 0.00 0.00 0.00 58 1007.7
20260904192523 85 270 0.0 3.0 0.00 0.00 0.00 58 1007.6
20260904192025 86 41 1.0 3.0 0.00 0.00 0.00 57 1007.6
20260904191545 86 44 1.0 3.0 0.00 0.00 0.00 56 1007.6
20260904191024 85 330 0.0 4.0 0.00 0.00 0.00 58 1007.6
20260904190524 85 283 0.0 4.0 0.00 0.00 0.00 58 1007.8
20260904190048 85 298 1.0 5.0 0.00 0.00 0.00 56 1007.8
20260904185528 86 256 1.0 5.0 0.00 0.00 0.00 56 1007.6
20260904185023 85 246 1.0 3.0 0.00 0.00 0.00 58 1007.6
20260904184542 85 36 1.0 3.0 0.00 0.00 0.00 56 1007.7
20260904184023 85 299 0.0 3.0 0.00 0.00 0.00 58 1007.7
20260904183524 84 340 1.0 9.0 0.00 0.00 0.00 59 1007.7
20260904183104 83 347 0.0 9.0 0.00 0.00 0.00 60 1007.7
20260904182524 83 24 2.0 6.0 0.00 0.00 0.00 58 1007.8
20260904182027 83 29 0.0 5.0 0.00 0.00 0.00 59 1007.9
20260904181545 82 37 1.0 6.0 0.00 0.00 0.00 59 1007.9
20260904181024 82 28 1.0 6.0 0.00 0.00 0.00 59 1007.9
20260904180522 83 38 2.0 5.0 0.00 0.00 0.00 57 1007.8
20260904180043 82 0 0.0 4.0 0.00 0.00 0.00 62 1007.8
20260904175524 83 327 0.0 4.0 0.00 0.00 0.00 60 1008.0
20260904175027 83 28 1.0 4.0 0.00 0.00 0.00 57 1007.9
20260904174547 83 264 0.0 4.0 0.00 0.00 0.00 61 1007.9
20260904174025 83 21 1.0 5.0 0.00 0.00 0.00 59 1008.0
20260904173524 83 296 1.0 5.0 0.00 0.00 0.00 62 1008.0
20260904173047 83 0 0.0 4.0 0.00 0.00 0.00 61 1007.9
20260904172527 83 20 1.0 4.0 0.00 0.00 0.00 61 1008.1
20260904172022 83 352 1.0 5.0 0.00 0.00 0.00 62 1008.1
20260904171603 82 41 2.0 5.0 0.00 0.00 0.00 61 1008.0
20260904171022 82 335 0.0 2.0 0.00 0.00 0.00 65 1008.2
20260904170522 81 0 0.0 3.0 0.00 0.00 0.00 64 1008.2
20260904170046 82 294 1.0 3.0 0.00 0.00 0.00 65 1008.1
20260904165524 82 40 1.0 3.0 0.00 0.00 0.00 62 1008.2
20260904165024 81 282 1.0 6.0 0.00 0.00 0.00 64 1008.4
20260904164554 81 36 2.0 6.0 0.00 0.00 0.00 66 1008.3
20260904164027 80 305 0.0 2.0 0.00 0.00 0.00 68 1008.4
20260904163524 81 312 1.0 5.0 0.00 0.00 0.00 66 1008.4
20260904163043 81 29 1.0 7.0 0.00 0.00 0.00 65 1008.4
20260904162519 81 27 4.0 7.0 0.00 0.00 0.00 64 1008.5
20260904162020 81 10 1.0 8.0 0.00 0.00 0.00 67 1008.5
20260904161547 80 37 1.0 8.0 0.00 0.00 0.00 67 1008.7
20260904161023 80 332 1.0 5.0 0.00 0.00 0.00 69 1008.7
20260904160523 80 32 2.0 5.0 0.00 0.00 0.00 66 1008.9
20260904160042 81 291 1.0 10.0 0.00 0.00 0.00 69 1008.8
20260904155525 80 307 1.0 10.0 0.00 0.00 0.00 69 1008.8
20260904155023 81 29 1.0 3.0 0.00 0.00 0.00 67 1008.8
20260904154545 80 0 0.0 4.0 0.00 0.00 0.00 67 1008.9
20260904154024 80 360 1.0 4.0 0.00 0.00 0.00 68 1008.8
20260904153524 81 264 1.0 4.0 0.00 0.00 0.00 67 1008.8
20260904153103 80 257 0.0 4.0 0.00 0.00 0.00 70 1009.0
20260904152523 79 302 0.0 7.0 0.00 0.00 0.00 72 1008.9
20260904152022 78 47 1.0 7.0 0.00 0.00 0.00 72 1009.1
20260904151546 78 35 1.0 5.0 0.00 0.00 0.00 71 1009.0
20260904151024 78 27 1.0 6.0 0.00 0.00 0.00 72 1009.2
20260904150524 78 35 3.0 6.0 0.00 0.00 0.00 72 1009.3
20260904150047 78 300 2.0 6.0 0.00 0.00 0.00 73 1009.3
20260904145524 77 30 2.0 6.0 0.00 0.00 0.00 73 1009.4
20260904145025 77 310 1.0 2.0 0.00 0.00 0.00 74 1009.3
20260904144546 77 326 0.0 5.0 0.00 0.00 0.00 74 1009.3
20260904144024 76 343 2.0 5.0 0.00 0.00 0.00 75 1009.4
20260904143525 76 32 1.0 6.0 0.00 0.00 0.00 76 1009.5
20260904143044 76 28 3.0 6.0 0.00 0.00 0.00 76 1009.4
20260904142526 76 359 0.0 3.0 0.00 0.00 0.00 78 1009.4
20260904142023 75 0 0.0 3.0 0.00 0.00 0.00 78 1009.5
20260904141542 75 34 0.0 5.0 0.00 0.00 0.00 78 1009.5
20260904141024 75 307 0.0 5.0 0.00 0.00 0.00 81 1009.4
20260904140524 74 0 0.0 3.0 0.00 0.00 0.00 84 1009.4
20260904140046 73 31 1.0 4.0 0.00 0.00 0.00 86 1009.4
20260904135524 73 0 0.0 4.0 0.00 0.00 0.00 88 1009.4
20260904135024 73 39 0.0 2.0 0.00 0.00 0.00 92 1009.5
20260904134549 72 0 0.0 2.0 0.00 0.00 0.00 94 1009.6
20260904134024 72 0 0.0 3.0 0.00 0.00 0.00 95 1009.7
20260904133518 71 105 1.0 4.0 0.00 0.00 0.00 96 1009.7
20260904133047 71 111 1.0 4.0 0.00 0.00 0.00 97 1009.7
20260904132525 70 118 1.0 3.0 0.00 0.00 0.00 97 1009.6
20260904132023 69 26 1.0 3.0 0.00 0.00 0.00 97 1009.6
20260904131550 69 0 0.0 1.0 0.00 0.00 0.00 97 1009.5
20260904131025 69 0 0.0 1.0 0.00 0.00 0.00 98 1009.6
20260904130528 68 0 0.0 1.0 0.00 0.00 0.00 98 1009.6
20260904130046 68 0 0.0 0.0 0.00 0.00 0.00 98 1009.6
20260904125524 67 0 0.0 0.0 0.00 0.01 0.00 97 1009.5
20260904125025 67 0 0.0 0.0 0.00 0.01 0.00 98 1009.6
20260904124542 67 0 0.0 0.0 0.00 0.01 0.00 98 1009.6
20260904124019 67 0 0.0 0.0 0.00 0.01 0.00 98 1009.5
20260904123519 66 0 0.0 0.0 0.00 0.01 0.00 98 1009.7
20260904123046 66 0 0.0 0.0 0.00 0.01 0.00 98 1009.8
20260904122525 66 0 0.0 0.0 0.00 0.01 0.00 98 1009.7
20260904122025 66 0 0.0 0.0 0.00 0.01 0.00 98 1009.6
20260904121545 66 0 0.0 0.0 0.00 0.01 0.00 98 1009.6
20260904121023 65 0 0.0 1.0 0.00 0.01 0.00 97 1009.7
20260904120523 65 0 0.0 1.0 0.00 0.01 0.00 97 1009.7
20260904120044 65 0 0.0 0.0 0.00 0.01 0.00 98 1009.7
20260904115523 65 0 0.0 0.0 0.00 0.03 0.00 98 1009.7
20260904115024 65 0 0.0 0.0 0.00 0.03 0.00 98 1009.7
20260904114543 65 0 0.0 0.0 0.00 0.03 0.00 98 1009.7
20260904114024 65 0 0.0 0.0 0.00 0.03 0.00 98 1009.7
20260904113524 65 0 0.0 0.0 0.00 0.03 0.00 98 1009.7
20260904113045 64 0 0.0 0.0 0.00 0.03 0.00 98 1009.7
20260904112524 64 0 0.0 0.0 0.00 0.03 0.00 98 1009.8
20260904112024 64 0 0.0 0.0 0.00 0.03 0.00 97 1009.7
20260904111542 64 0 0.0 0.0 0.00 0.03 0.00 97 1009.7
20260904111023 64 0 0.0 0.0 0.00 0.03 0.00 97 1009.7
20260904110524 64 0 0.0 0.0 0.00 0.03 0.00 97 1009.6
20260904110044 64 0 0.0 0.0 0.00 0.03 0.00 97 1009.7
20260904105522 64 0 0.0 0.0 0.00 0.06 0.00 97 1009.8
20260904105021 64 0 0.0 0.0 0.00 0.06 0.00 97 1009.6
20260904104544 64 0 0.0 0.0 0.00 0.06 0.00 97 1009.6
20260904104021 64 0 0.0 0.0 0.00 0.06 0.00 97 1009.5
20260904103525 64 0 0.0 0.0 0.00 0.06 0.00 97 1009.4
20260904103052 64 0 0.0 0.0 0.00 0.06 0.00 97 1009.4
20260904102524 64 0 0.0 0.0 0.00 0.06 0.00 97 1009.4
20260904102024 64 0 0.0 0.0 0.00 0.06 0.00 97 1009.4
20260904101551 64 0 0.0 0.0 0.00 0.06 0.00 97 1009.4
20260904101031 64 0 0.0 0.0 0.00 0.06 0.00 97 1009.4
20260904100523 64 0 0.0 0.0 0.00 0.06 0.00 97 1009.3
20260904100042 64 0 0.0 0.0 0.00 0.06 0.00 97 1009.3
20260904095524 64 0 0.0 0.0 0.00 0.13 0.00 97 1009.3
20260904095018 64 0 0.0 0.0 0.00 0.13 0.00 97 1009.2
20260904094558 64 0 0.0 0.0 0.00 0.13 0.00 97 1009.2
20260904094021 64 0 0.0 0.0 0.00 0.13 0.00 97 1009.3
20260904093524 64 0 0.0 0.0 0.00 0.13 0.00 97 1009.3
20260904093044 64 0 0.0 0.0 0.00 0.13 0.00 97 1009.2
20260904092528 64 0 0.0 0.0 0.00 0.13 0.00 97 1009.3
20260904092025 64 0 0.0 0.0 0.00 0.13 0.00 97 1009.3
20260904091547 64 0 0.0 0.0 0.00 0.13 0.00 97 1009.2
20260904091019 64 0 0.0 0.0 0.00 0.13 0.00 97 1009.2
20260904090521 64 0 0.0 0.0 0.00 0.13 0.00 97 1009.2
20260904090042 65 0 0.0 0.0 0.00 0.13 0.00 97 1009.2
20260904085525 65 0 0.0 0.0 0.00 0.16 0.00 97 1009.1
20260904085024 65 0 0.0 0.0 0.00 0.16 0.00 97 1009.2
20260904084542 65 0 0.0 0.0 0.00 0.16 0.00 97 1009.3
20260904084025 65 0 0.0 0.0 0.00 0.16 0.00 97 1009.3
20260904083526 65 0 0.0 0.0 0.00 0.16 0.00 97 1009.3
20260904083048 65 0 0.0 0.0 0.00 0.16 0.00 97 1009.3
20260904082524 65 0 0.0 0.0 0.00 0.16 0.00 97 1009.5
20260904082024 65 0 0.0 0.0 0.00 0.16 0.00 97 1009.4
20260904081543 65 0 0.0 0.0 0.00 0.16 0.00 97 1009.5
20260904081025 65 0 0.0 0.0 0.00 0.16 0.00 97 1009.4
20260904080518 65 0 0.0 0.0 0.00 0.16 0.00 97 1009.4
20260904080044 65 0 0.0 0.0 0.00 0.16 0.00 97 1009.3
20260904075523 65 0 0.0 0.0 0.00 0.16 0.00 97 1009.3
20260904075024 65 0 0.0 0.0 0.00 0.16 0.00 97 1009.4
20260904074549 65 0 0.0 0.0 0.00 0.16 0.00 97 1009.4
20260904074025 65 0 0.0 0.0 0.00 0.16 0.00 97 1009.6
20260904073524 65 0 0.0 0.0 0.00 0.16 0.00 97 1009.8
20260904073049 65 0 0.0 0.0 0.00 0.16 0.00 97 1009.9
20260904072523 65 0 0.0 0.0 0.00 0.16 0.00 97 1009.9
20260904072019 65 0 0.0 0.0 0.00 0.16 0.00 97 1010.0
20260904071543 65 0 0.0 1.0 0.00 0.16 0.00 96 1009.9
20260904071025 65 0 0.0 1.0 0.00 0.16 0.00 96 1010.0
20260904070525 65 0 0.0 0.0 0.00 0.16 0.00 97 1010.0
20260904070041 65 0 0.0 0.0 0.00 0.16 0.00 96 1010.1
20260904065528 65 0 0.0 0.0 0.00 0.16 0.00 96 1010.1
20260904065025 65 0 0.0 0.0 0.00 0.16 0.00 96 1010.1
20260904064542 65 0 0.0 0.0 0.00 0.16 0.00 96 1010.0
20260904064024 65 0 0.0 0.0 0.00 0.16 0.00 96 1010.1
20260904063523 65 0 0.0 0.0 0.00 0.16 0.00 96 1010.1
20260904063045 65 0 0.0 0.0 0.00 0.16 0.00 96 1010.2
20260904062525 65 0 0.0 0.0 0.00 0.16 0.00 96 1010.2
20260904062018 65 0 0.0 1.0 0.00 0.16 0.00 96 1010.1
20260904061540 65 0 0.0 1.0 0.00 0.16 0.00 96 1010.2
20260904061020 64 0 0.0 1.0 0.00 0.16 0.00 96 1010.2
20260904060521 64 0 0.0 1.0 0.00 0.16 0.00 96 1010.3
20260904060059 64 0 0.0 2.0 0.00 0.16 0.00 96 1010.2
20260904055523 64 35 0.0 2.0 0.00 0.16 0.00 96 1010.4
20260904055024 64 0 0.0 0.0 0.00 0.16 0.00 96 1010.4
20260904054556 64 0 0.0 0.0 0.00 0.16 0.00 96 1010.3
20260904054023 64 0 0.0 0.0 0.00 0.16 0.00 96 1010.2
20260904053524 64 0 0.0 0.0 0.00 0.16 0.00 96 1010.3
20260904053046 64 0 0.0 0.0 0.00 0.16 0.00 96 1010.4
20260904052519 64 0 0.0 0.0 0.00 0.16 0.00 95 1010.4
20260904052022 64 0 0.0 0.0 0.00 0.16 0.00 95 1010.4
20260904051542 64 0 0.0 0.0 0.00 0.16 0.00 95 1010.5
20260904051020 64 0 0.0 0.0 0.00 0.16 0.00 95 1010.5
20260904050524 64 0 0.0 0.0 0.00 0.16 0.00 95 1010.6
20260904050046 64 0 0.0 0.0 0.00 0.16 0.00 95 1010.7
20260904045531 65 0 0.0 0.0 0.00 0.16 0.00 95 1010.8
20260904045024 65 0 0.0 0.0 0.00 0.16 0.00 95 1010.9
20260904044549 65 0 0.0 0.0 0.00 0.16 0.00 95 1010.9
20260904044023 65 0 0.0 0.0 0.00 0.16 0.00 95 1011.0
20260904043523 65 0 0.0 0.0 0.00 0.16 0.00 95 1011.0
20260904043045 65 0 0.0 0.0 0.00 0.16 0.00 95 1011.0
20260904042525 65 0 0.0 0.0 0.00 0.16 0.00 95 1011.1
20260904042023 65 0 0.0 0.0 0.00 0.16 0.00 95 1011.1
20260904041544 65 0 0.0 0.0 0.00 0.16 0.00 95 1011.1
20260904041023 65 0 0.0 0.0 0.00 0.16 0.00 95 1011.1
20260904040525 65 0 0.0 0.0 0.00 0.16 0.00 95 1011.1
20260904040045 66 0 0.0 0.0 0.00 0.16 0.00 95 1011.2
20260904035523 66 0 0.0 0.0 0.00 0.16 0.16 95 1011.2
20260904035019 66 0 0.0 0.0 0.00 0.16 0.16 95 1011.2
20260904034543 66 0 0.0 0.0 0.00 0.16 0.16 95 1011.2
20260904034021 66 0 0.0 0.0 0.00 0.16 0.16 95 1011.2
20260904033527 66 0 0.0 0.0 0.00 0.16 0.16 95 1011.3
20260904033046 66 0 0.0 0.0 0.00 0.16 0.16 95 1011.3
20260904032524 66 0 0.0 0.0 0.00 0.16 0.16 95 1011.3
20260904032024 67 0 0.0 0.0 0.00 0.16 0.16 95 1011.4
20260904031544 67 0 0.0 0.0 0.00 0.16 0.16 95 1011.4
20260904031023 67 0 0.0 0.0 0.00 0.16 0.16 95 1011.3
20260904030523 67 0 0.0 0.0 0.00 0.16 0.16 95 1011.4
20260904030043 67 0 0.0 0.0 0.00 0.16 0.16 95 1011.3
20260904025524 67 0 0.0 0.0 0.00 0.16 0.16 95 1011.3
20260904025024 67 0 0.0 0.0 0.00 0.16 0.16 95 1011.4
20260904024543 67 0 0.0 0.0 0.00 0.16 0.16 95 1011.4
20260904024023 67 0 0.0 0.0 0.00 0.16 0.16 94 1011.6
20260904023524 67 0 0.0 0.0 0.00 0.16 0.16 94 1011.5
20260904023046 67 0 0.0 0.0 0.00 0.16 0.16 94 1011.6
20260904022523 67 0 0.0 0.0 0.00 0.16 0.16 94 1011.8
20260904022026 68 0 0.0 0.0 0.00 0.16 0.16 94 1011.8
20260904021543 68 0 0.0 0.0 0.00 0.16 0.16 94 1011.8
20260904021024 68 0 0.0 0.0 0.00 0.16 0.16 94 1011.7
20260904020524 68 0 0.0 0.0 0.00 0.16 0.16 94 1011.9
20260904020043 68 0 0.0 0.0 0.00 0.16 0.16 94 1011.9
20260904015518 68 0 0.0 0.0 0.00 0.16 0.16 94 1011.7
20260904015026 68 0 0.0 0.0 0.00 0.16 0.16 94 1011.7
20260904014612 68 0 0.0 0.0 0.00 0.16 0.16 94 1011.9
20260904014024 68 0 0.0 0.0 0.00 0.16 0.16 94 1012.1
20260904013524 68 0 0.0 0.0 0.00 0.16 0.16 94 1012.1
20260904013046 68 0 0.0 0.0 0.00 0.16 0.16 94 1012.2
20260904012523 68 0 0.0 0.0 0.00 0.16 0.16 94 1012.3
20260904012025 68 0 0.0 0.0 0.00 0.16 0.16 94 1012.4
20260904011544 68 0 0.0 0.0 0.00 0.16 0.16 94 1012.4
20260904011023 68 0 0.0 0.0 0.00 0.16 0.16 93 1012.3
20260904010521 69 0 0.0 0.0 0.00 0.16 0.16 93 1012.2
20260904010049 69 0 0.0 0.0 0.00 0.16 0.16 93 1012.2
20260904005524 69 0 0.0 0.0 0.00 0.16 0.16 93 1012.2
20260904005023 69 0 0.0 0.0 0.00 0.16 0.16 93 1012.0
20260904004544 69 0 0.0 0.0 0.00 0.16 0.16 93 1011.9
20260904004024 69 0 0.0 0.0 0.00 0.16 0.16 93 1011.8
20260904003521 69 0 0.0 0.0 0.00 0.16 0.16 93 1011.7
20260904003044 69 0 0.0 0.0 0.00 0.16 0.16 92 1011.6
20260904002524 69 0 0.0 0.0 0.00 0.16 0.16 92 1011.6
20260904002024 70 0 0.0 0.0 0.00 0.16 0.16 92 1011.6
20260904001545 70 0 0.0 0.0 0.00 0.16 0.16 92 1011.5
20260904001026 70 0 0.0 0.0 0.00 0.16 0.16 92 1011.4
20260904000525 70 0 0.0 0.0 0.00 0.16 0.16 92 1011.3
20260904000043 70 0 0.0 0.0 0.00 0.16 0.16 92 1011.2
20260903235524 70 0 0.0 0.0 0.00 0.16 0.16 92 1011.2
20260903235021 70 0 0.0 0.0 0.00 0.16 0.16 91 1011.2
20260903234544 71 0 0.0 0.0 0.00 0.16 0.16 91 1011.3
20260903234024 71 0 0.0 0.0 0.00 0.16 0.16 91 1011.3
20260903233525 71 0 0.0 0.0 0.00 0.16 0.16 91 1011.3
20260903233048 71 0 0.0 0.0 0.00 0.16 0.16 90 1011.3
20260903232524 71 0 0.0 0.0 0.00 0.16 0.16 90 1011.5
20260903232023 72 0 0.0 0.0 0.00 0.16 0.16 90 1011.3
20260903231544 72 0 0.0 0.0 0.00 0.16 0.16 89 1011.3
20260903231024 72 0 0.0 0.0 0.00 0.16 0.16 89 1011.0
20260903230524 73 0 0.0 0.0 0.00 0.16 0.16 89 1011.1
20260903230041 73 0 0.0 0.0 0.00 0.16 0.16 88 1011.2
20260903225527 73 0 0.0 0.0 0.00 0.16 0.16 88 1011.2
20260903225024 73 0 0.0 0.0 0.00 0.16 0.16 87 1011.3
20260903224540 74 0 0.0 0.0 0.00 0.16 0.16 87 1011.3
20260903224025 74 0 0.0 0.0 0.00 0.16 0.16 87 1011.3
20260903223524 74 0 0.0 0.0 0.00 0.16 0.16 88 1011.5
20260903223055 74 0 0.0 0.0 0.00 0.16 0.16 87 1011.5
20260903222521 74 0 0.0 0.0 0.00 0.16 0.16 87 1011.7
20260903222018 74 0 0.0 0.0 0.00 0.16 0.16 87 1011.7
20260903221542 74 0 0.0 0.0 0.00 0.16 0.16 86 1011.7
20260903221024 74 0 0.0 0.0 0.00 0.16 0.16 86 1011.7
20260903220523 74 0 0.0 0.0 0.00 0.16 0.16 86 1011.8
20260903220046 75 0 0.0 0.0 0.00 0.16 0.16 86 1011.7
20260903215524 75 0 0.0 2.0 0.00 0.16 0.16 85 1011.6
20260903215023 75 0 0.0 2.0 0.00 0.16 0.16 85 1011.5
20260903214546 75 126 0.0 4.0 0.00 0.16 0.16 85 1011.5
20260903214024 75 128 0.0 4.0 0.00 0.16 0.16 84 1011.5
20260903213522 75 0 0.0 4.0 0.00 0.16 0.16 84 1011.3
20260903213044 75 0 0.0 5.0 0.00 0.16 0.16 84 1011.5
20260903212524 75 101 2.0 5.0 0.00 0.16 0.16 84 1011.5
20260903212024 75 0 0.0 3.0 0.00 0.16 0.16 86 1011.5